Home > Weather > Thule Air Base > Past weeks

Flag for Greenland Past Weather in Thule Air Base, Greenland — Yesterday and Last 2 Weeks

Now
28 °F

Sunny.


Feels Like: 25 °F
Forecast: 21 / 30 °F
Wind: 3 mph from East

Location: Thule A. B.

Current Time: May 29, 2016 at 8:40:14 AM

Latest Report: May 29, 2016 at 7:58 AM


Visibility: N/A

Pressure: 30.09 "Hg

Humidity: 74%

Dew Point: 21 °F

Location of Thule Air BaseLocation

Past Weather in Thule Air Base — Graph

°F

Thule Air Base Temperature Yesterday

Maximum temperature yesterday: 34 °F (at 1:58 PM)
Minimum temperature yesterday: 23 °F (at 2:58 AM)
Average temperature yesterday: 30 °F

High & Low Weather Summary for the Past Weeks

 TemperatureHumidityPressure
High39 °F (May 23, 2:58 PM)86% (May 18, 5:58 PM)30.33 "Hg (May 18, 5:58 PM)
Low12 °F (May 16, 1:58 AM)48% (May 23, 2:58 PM)29.34 "Hg (May 25, 8:58 AM)
Average29 °F72%29.74 "Hg
* Reported May 14 6:58 AM — May 29 6:58 AM, Thule Air Base, Weather by CustomWeather, © 2016

Note: Actual official high and low records may vary slightly from our data, if they occured in-between our weather recording intervals... More about our weather records

Advertising

Thule Air Base Weather History for the Previous 24 Hours

Scroll right to see more
 ConditionsComfort  
Time TempWeatherWind HumidityBarometerVisibility
6:58 AM
Sun, May 29
27 °FSunny.7 mph74%30.09 "HgN/A
5:58 AM23 °FSunny.8 mph80%30.10 "HgN/A
4:58 AM23 °FSunny.6 mph74%30.10 "HgN/A
3:58 AM21 °FSunny.6 mph80%30.10 "HgN/A
2:58 AM24 °FSunny.9 mph78%30.10 "HgN/A
1:58 AM28 °FSunny.No wind74%30.10 "HgN/A
12:58 AM28 °FSunny.3 mph80%30.09 "HgN/A
11:58 PM
Sat, May 28
30 °FScattered clouds.No wind75%30.09 "HgN/A
10:58 PM32 °FMore clouds than sun.6 mph64%30.09 "HgN/A
9:58 PM30 °FOvercast.9 mph75%30.08 "HgN/A
8:58 PM30 °FOvercast.20 mph75%30.07 "HgN/A
7:58 PM30 °FOvercast.21 mph75%30.05 "HgN/A
6:58 PM32 °FOvercast.22 mph69%30.03 "HgN/A
5:58 PM32 °FOvercast.23 mph75%30.02 "HgN/A
4:58 PM32 °FOvercast.23 mph75%30.00 "HgN/A
3:58 PM32 °FPartly sunny.26 mph75%29.98 "HgN/A
2:58 PM34 °FOvercast.28 mph70%29.96 "HgN/A
1:58 PM34 °FScattered clouds.25 mph70%29.94 "HgN/A
12:58 PM32 °FSunny.25 mph69%29.92 "HgN/A
11:58 AM32 °FSunny.30 mph69%29.89 "HgN/A
10:58 AM32 °FSunny.30 mph69%29.86 "HgN/A
9:58 AM30 °FSunny.23 mph69%29.83 "HgN/A
8:58 AM30 °FSunny.26 mph69%29.80 "HgN/A
Weather by CustomWeather, © 2016

See weather overviewHow to use our weather pages